Location: Iberia
(40.0000°N, 5.0000°W)
Time: 05:43:35
(UTC+00:00)

Daily predictions for brighter satellites

Satellite Brightness Start Highest point End
(mag) Time Altitude Azimuth Time Altitude Azimuth Time Altitude Azimuth
Cosmos 1980 Rocket 4.1 03:47:10 24° E 03:47:10 24° E 03:50:35 10° NE
COSMOS 2455 4.1 04:00:19 38° ENE 04:00:19 38° ENE 04:04:07 10° NE
Cosmos 2263 Rocket 3.3 04:27:01 22° N 04:30:07 40° ENE 04:35:22 10° SE
Cosmos 2123 Rocket 4.2 04:31:05 10° N 04:37:17 68° E 04:43:25 10° SSE
Cosmos 2369 4.4 04:47:58 18° S 04:51:56 50° ESE 04:57:24 10° NNE
Meteor 2-16 Rocket 4.2 04:47:52 10° NNW 04:53:58 73° W 05:00:03 10° S
Cosmos 1025 Rocket 4.0 04:51:33 10° N 04:55:46 47° E 04:59:56 10° SSE
Cosmos 1934 Rocket 3.8 04:55:51 47° SSW 04:57:45 78° W 05:03:59 10° N
Exosat Rocket 3.4 04:58:24 49° NNW 04:59:50 85° ENE 05:04:50 10° SSE
BREEZE-M DEB (TANK) 3.9 04:59:51 46° NW 05:00:59 53° NNW 05:06:05 10° ENE
Cosmos 2227 Rocket 2.1 05:05:54 62° WSW 05:05:54 62° WSW 05:11:17 10° S
Cosmos 1400 Rocket 4.4 05:03:06 10° SSE 05:06:31 33° E 05:09:57 10° NNE
Cosmos 2221 Rocket 4.5 05:03:52 10° N 05:08:17 50° E 05:12:38 10° SSE
H-2A R/B 3.5 05:05:38 10° NNE 05:09:26 66° ESE 05:09:42 63° SE
Cosmos 2344 4.4 05:12:21 33° WNW 05:16:07 47° WSW 05:27:22 10° S
SL-4 R/B 1.9 05:16:46 64° SE 05:16:46 64° SE 05:19:59 10° SE
Cosmos 1300 Rocket 4.5 05:17:14 10° SSE 05:21:28 49° E 05:25:43 10° NNE
Cosmos 1503 Rocket 4.0 05:21:24 50° W 05:22:08 55° WNW 05:27:16 10° N
IRS-1D 3.9 05:17:40 10° NNE 05:22:48 63° ESE 05:27:46 10° S
CZ-2C R/B 3.8 05:19:02 10° N 05:21:07 23° NNW 05:21:07 23° NNW
Cosmos 1605 Rocket 3.9 05:17:01 10° S 05:23:25 86° W 05:29:49 10° N
ISS -3.3 05:24:33 56° NNE 05:24:33 56° NNE 05:27:20 10° NE
Cosmos 1980 Rocket 2.5 05:28:58 40° W 05:29:46 42° WNW 05:35:04 10° N
CZ-4 R/B 4.5 05:26:00 10° NNE 05:30:56 59° E 05:35:47 10° S
Cosmos 1674 Rocket 3.6 05:30:00 42° NW 05:30:59 52° W 05:35:13 10° S
Cosmos 1697 Rocket 4.3 05:40:45 17° NW 05:40:45 17° NW 05:43:40 10° N
COSMOS 2455 3.8 05:43:28 25° WNW 05:44:30 26° NW 05:49:31 10° N
NOSS 3-1 (C) 3.8 05:48:12 26° WNW 05:49:17 29° NW 05:54:02 10° NNE
Cosmos 783 Rocket 4.4 05:47:16 10° NNW 05:52:22 60° WSW 05:57:26 10° S
Cosmos 2278 4.5 05:50:21 10° S 05:55:50 55° ESE 06:01:20 10° NNE
Cosmos 2237 4.2 05:51:27 10° SW 05:57:06 64° WNW 06:02:46 10° NNE
NOSS 3-1 (A) 2.8 05:54:06 16° SW 05:57:36 60° NW 06:02:54 10° NNE
Cosmos 2360 Rocket 4.0 05:54:39 10° SSE 05:59:40 35° ESE 06:04:41 10° NE
NOAA 12 4.2 05:55:01 10° N 06:00:08 53° WNW 06:05:16 10° SSW
USA-17 4.4 05:59:01 26° NW 06:00:37 55° WSW 06:04:12 10° SSE
Cosmos 372 Rocket 3.9 05:56:25 10° SSW 06:01:29 88° ESE 06:06:37 10° NNE
USA 215 4.1 05:56:35 10° ESE 06:02:45 45° NNE 06:08:56 10° NW
Cosmos 1602 2.9 06:03:17 10° N 06:06:04 79° E 06:08:49 10° S
Cosmos 2219 3.3 06:03:20 10° NNW 06:08:52 52° WSW 06:14:18 10° S
Intercosmos 25 Rocket 4.5 06:10:00 18° WSW 06:10:00 18° WSW 06:11:49 10° SW
Helios 1A Rocket 4.4 06:06:48 10° SE 06:09:42 30° ENE 06:12:37 10° N
SKYMED 2 4.0 06:06:04 10° SSW 06:10:07 39° W 06:14:12 10° NNW
Cosmos 1975 Rocket 3.2 06:08:18 10° N 06:12:36 77° E 06:16:53 10° S
BREEZE-M DEB (TANK) 4.3 05:54:13 10° SW 06:13:42 81° SE 06:18:13 10° ENE
Cosmos 2263 Rocket 3.0 06:09:04 10° NW 06:13:47 28° WSW 06:18:26 10° SSW
Cosmos 1782 Rocket 3.8 06:11:39 10° SSW 06:15:52 46° W 06:20:10 10° N
Cosmos 1898 Rocket 3.5 06:14:31 10° SSW 06:19:49 83° WNW 06:25:09 10° NNE
MOS 1 Rocket 3.9 06:18:48 10° NNE 06:23:09 58° E 06:27:43 10° S
Cosmos 1937 Rocket 3.5 06:24:57 10° SSW 06:30:05 89° ESE 06:35:19 10° NNE
Cosmos 2173 Rocket 4.0 06:25:49 10° SSW 06:32:09 73° W 06:38:32 10° N
Landsat 7 4.3 06:28:08 10° NNE 06:32:46 64° E 06:37:22 10° S
H-2A ROCKET BODY 4.2 06:17:25 10° WSW 06:34:24 40° SSW 06:39:33 10° SE
DELTA 2 R/B (1) 4.2 06:29:42 10° SW 06:35:05 54° SSE 06:40:31 10° E
DMSP B5D1-3 4.5 06:30:07 10° S 06:35:08 69° WSW 06:40:12 10° NNW
COSMO-SKYMED 1 3.1 06:31:30 10° SSW 06:35:14 34° W 06:39:01 10° NNW
Cosmos 2082 4.2 06:30:34 10° NW 06:35:46 37° WSW 06:40:54 10° S
NOSS 7 (E) 4.3 06:38:01 10° NW 06:41:11 88° WSW 06:44:48 10° SSE
Cosmos 1400 Rocket 4.3 06:39:47 10° WSW 06:42:00 15° WNW 06:44:15 10° NW
SL-16 R/B 2.4 06:37:15 10° SW 06:42:44 51° WNW 06:48:15 10° NNE
Cosmos 2100 Rocket 4.2 06:42:01 10° SSW 06:48:11 52° W 06:54:23 10° N
